Regional Weather Roundup
Issued by NWS Columbia, SC

Home | Current Version | Previous Version | Text Only | Print | Product List | Glossary On
Versions: 1 2 3 4 5 6 7 8 9 10 11 12 13 14 15 16 17 18 19 20 21 22 23 24 25 26 27
000
ASUS42 KCAE 192010
RWRCAE
REGIONAL WEATHER ROUNDUP
NATIONAL WEATHER SERVICE COLUMBIA SC
400 PM EDT SAT APR 19 2014

NOTE: "FAIR" INDICATES FEW OR NO CLOUDS BELOW 12,000 FEET WITH NO
SIGNIFICANT WEATHER AND/OR OBSTRUCTIONS TO VISIBILITY.

NOT ALL STATIONS ARE QUALITY CONTROLLED BY THE NATIONAL
WEATHER SERVICE. USE DATA WITH CAUTION...ESPECIALLY
DEWPOINT OBSERVATIONS.

SCZ001>056-GAZ040-063>065-077-192100-
...UPSTATE SOUTH CAROLINA...

CITY           SKY/WX    TMP DP  RH WIND       PRES   REMARKS
ANDERSON       CLOUDY    56  52  86 NE20G31   30.11S
LIBERTY        LGT RAIN  56  26  31 MISG      30.13F
SPARTANBURG    RAIN      54  54 100 N18G24    30.14S
CLEMSON        LGT RAIN  59  51  75 NE12G25   30.14S
GREENVILLE     LGT RAIN  55  51  86 N18G26    30.15S
GREENWOOD      CLOUDY    54  51  90 NE13      30.11S FOG
GREER          LGT RAIN  54  52  93 N20       30.14S FOG
ROCK HILL      HVY RAIN  51  50  96 NE12G22   30.12F FOG


...CENTRAL SOUTH CAROLINA...

CITY           SKY/WX    TMP DP  RH WIND       PRES   REMARKS
COLUMBIA APT   LGT RAIN  57  55  93 NE10G20   30.05S FOG
COLUMBIA OWENS CLOUDY    57  53  86 VRB6      30.06S FOG
DARLINGTON     CLOUDY    54  50  87 NE18G26   30.08F
FLORENCE       CLOUDY    55  52  89 NE16      30.06S FOG
MCENTIRE ANGB  DRIZZLE   56  56  98 NE9G17    30.05R FOG
ORANGEBURG     LGT RAIN  57  53  86 NE13      30.02S
SUMTER SHAW    LGT RAIN  55  54  94 NE18      30.03S
NEWBERRY       LGT RAIN  54  54 100 NE14G24   30.12R
AIKEN          CLOUDY    57  57 100 NE16G22   30.06S
BARNWELL       CLOUDY    59  55  88 NE12      30.00F
MANNING        CLOUDY    57 N/A N/A NE9G17    30.02F
CAMDEN         LGT RAIN  54  54 100 NE16G24   30.07S
LANCASTER      CLOUDY    52  52 100 N12G18    30.10F
WINNSBORO      CLOUDY    52  52 100 N12G20    30.07S FOG


...EASTERN AND COASTAL SOUTH CAROLINA...

CITY           SKY/WX    TMP DP  RH WIND       PRES   REMARKS
MYRTLE BEACH   CLOUDY    59  55  88 NE17      30.00S
N MYRTLE BCH   CLOUDY    59  54  83 NE21G28   30.00S
CONWAY         CLOUDY    55  55 100 N18G25    30.02S
MARION         CLOUDY    54  52  94 NE16G25   30.05S FOG
HARTSVILLE     CLOUDY    55  55 100 NE23      30.07F
FLORENCE       CLOUDY    55  52  89 NE16      30.06S FOG
DARLINGTON     CLOUDY    54  50  87 NE18G26   30.08F
CHARLESTON APT CLOUDY    61  56  83 N12       29.98R
MOUNT PLEASANT CLOUDY   N/A N/A N/A N6        29.97R
WALTERBORO     CLOUDY    57 N/A N/A N6        29.99S
BEAUFORT       CLOUDY    60  57  89 NE14      29.96S FOG


...EASTERN GEORGIA...

CITY           SKY/WX    TMP DP  RH WIND       PRES   REMARKS
AUGUSTA BUSH F CLOUDY    59  52  77 NE15G26   30.02F
AUGUSTA DANIEL CLOUDY    59  53  80 N18G29    30.03S
THOMSON        CLOUDY    56  56 100 NE9       30.09S
WASHINGTON     CLOUDY    55  55 100 NE10G20   30.07S FOG
CLAXTON        CLOUDY    59  59 100 N8        29.96F
SYLVANIA       CLOUDY    60  56  88 NE12      29.98S
STATESBORO     CLOUDY    58  58  98 NE10      29.97S
SAVANNAH       CLOUDY    63  58  83 N12       29.94F


...SOUTHERN NORTH CAROLINA...

CITY           SKY/WX    TMP DP  RH WIND       PRES   REMARKS
CHARLOTTE      RAIN      52  50  93 N12       30.15S FOG
MONROE         RAIN      52  49  89 NE16      30.11S FOG
WADESBORO      RAIN      53  51  93 N8G16     30.12S
ROCKINGHAM       N/A     53  52  96 NE10G24   30.09S FOG
RUTHERFORDTON  RAIN      53  49  86 N5        30.19S
ASHEVILLE      LGT RAIN  51  47  86 CALM      30.20S

$$



USA.gov is the U.S. government's official web portal to all federal, state and local government web resources and services.